Location: Unspecified
(0.0000°N, 0.0000°E)
Time: 23:22:38
(UTC+00:00)

ISS - Pass Details

Date: 18 October 2020
Orbit: 417 x 420 km, 51.6° (Epoch: 30 October)

Event Time Altitude Azimuth Distance (km) Brightness Sun altitude
Exits shadow 03:50:52 - 158° (SSE) 1,597 -0.4 -28.1°
Reaches altitude 10° 03:51:28 10° 149° (SSE) 1,489 -0.5 -28.0°
Maximum altitude 03:52:45 12° 126° (SE) 1,385 -0.4 -27.7°
Drops below altitude 10° 03:54:01 10° 104° (ESE) 1,486 0.0 -27.3°
Sets 03:57:14 0° 70° (ENE) 2,345 0.9 -26.6°
